TimeCST,TemperatureF,Dew PointF,Humidity,Sea Level PressureIn,VisibilityMPH,Wind Direction,Wind SpeedMPH,Gust SpeedMPH,PrecipitationIn,Events,Conditions,WindDirDegrees,DateUTC
12:53 AM,46.0,30.0,54,29.92,10.0,Calm,Calm,-,N/A,,Clear,0,2013-02-27 06:53:00
1:53 AM,43.0,30.0,60,29.90,10.0,ENE,5.8,-,N/A,,Clear,60,2013-02-27 07:53:00
2:53 AM,44.1,28.9,55,29.91,10.0,NE,5.8,-,N/A,,Partly Cloudy,50,2013-02-27 08:53:00
3:53 AM,42.1,28.0,58,29.93,10.0,North,4.6,-,N/A,,Partly Cloudy,10,2013-02-27 09:53:00
4:53 AM,42.1,28.9,60,29.95,10.0,North,8.1,-,N/A,,Partly Cloudy,350,2013-02-27 10:53:00
5:53 AM,39.0,30.0,70,30.00,10.0,North,6.9,-,N/A,,Partly Cloudy,350,2013-02-27 11:53:00
6:53 AM,37.9,30.0,73,30.03,10.0,North,13.8,-,N/A,,Scattered Clouds,350,2013-02-27 12:53:00
7:53 AM,41.0,30.0,65,30.06,10.0,North,9.2,-,N/A,,Mostly Cloudy,350,2013-02-27 13:53:00
8:53 AM,44.6,30.2,57,30.10,10.0,NW,10.4,-,N/A,,Partly Cloudy,320,2013-02-27 14:53:00
9:53 AM,46.9,30.0,52,30.12,10.0,NW,10.4,-,N/A,,Partly Cloudy,320,2013-02-27 15:53:00
10:53 AM,50.0,28.0,43,30.13,10.0,NW,13.8,-,N/A,,Partly Cloudy,310,2013-02-27 16:53:00
11:53 AM,54.0,25.0,33,30.13,10.0,North,16.1,-,N/A,,Clear,350,2013-02-27 17:53:00
12:53 PM,55.9,19.0,24,30.13,10.0,NW,19.6,26.5,N/A,,Clear,320,2013-02-27 18:53:00
1:53 PM,57.0,21.9,26,30.12,10.0,NNW,20.7,27.6,N/A,,Clear,330,2013-02-27 19:53:00
2:53 PM,57.0,23.0,27,30.12,10.0,NW,15.0,26.5,N/A,,Clear,320,2013-02-27 20:53:00
3:53 PM,57.0,23.0,27,30.12,10.0,WNW,18.4,26.5,N/A,,Clear,300,2013-02-27 21:53:00
4:53 PM,57.0,21.0,25,30.12,10.0,NW,19.6,27.6,N/A,,Clear,310,2013-02-27 22:53:00
5:53 PM,55.0,17.1,23,30.12,10.0,NW,18.4,23.0,N/A,,Partly Cloudy,320,2013-02-27 23:53:00
6:53 PM,52.0,18.0,26,30.15,10.0,NW,18.4,25.3,N/A,,Partly Cloudy,320,2013-02-28 00:53:00
7:53 PM,50.0,19.9,31,30.18,10.0,NW,16.1,24.2,N/A,,Clear,320,2013-02-28 01:53:00
8:53 PM,48.0,21.9,36,30.19,10.0,NNW,17.3,23.0,N/A,,Clear,330,2013-02-28 02:53:00
9:53 PM,46.0,23.0,40,30.21,10.0,NNW,15.0,-,N/A,,Clear,340,2013-02-28 03:53:00
10:53 PM,44.1,23.0,43,30.23,10.0,NNW,18.4,26.5,N/A,,Clear,330,2013-02-28 04:53:00
11:53 PM,42.1,23.0,47,30.24,10.0,NNW,12.7,-,N/A,,Scattered Clouds,330,2013-02-28 05:53:00